Location: D?uga
(50.2667°N, 19.7833°E)
Time: 23:07:43
(UTC+00:00)

Cosmos 2333 Rocket - Pass Details

Date: 23 May 2024
Orbit: 838 x 863 km, 70.8° (Epoch: 22 June)

Event Time Altitude Azimuth Distance (km) Brightness Sun altitude
Rises 00:46:41 0° 330° (NNW) 3,424 5.8 -13.6°
Reaches altitude 10° 00:49:08 10° 332° (NNW) 2,488 5.1 -13.4°
Maximum altitude 00:54:52 78° 59° (ENE) 878 2.4 -12.9°
Drops below altitude 10° 01:00:37 10° 146° (SSE) 2,489 4.4 -12.4°
Sets 01:03:04 0° 148° (SSE) 3,425 5.1 -12.2°
